Location: Tuebingen alte Sternwarte
(48.5376°N, 9.0555°E)
Time: 22:15:41
(UTC+02:00)

OTV 5 (USA 277) - Pass Details

Date: 28 June 2018
Orbit: 312 x 321 km, 54.5° (Epoch: 05 July)

Event Time Altitude Azimuth Distance (km) Brightness Sun altitude
Rises 23:44:34 0° 298° (WNW) 2,049 ? -14.6°
Reaches altitude 10° 23:46:32 10° 294° (WNW) 1,218 ? -14.8°
Maximum altitude 23:49:12 57° 214° (SW) 378 ? -14.9°
Enters shadow 23:49:38 48° 171° (S) 423 ? -15.0°
